When you browse on this site, cookies collect data to enhance your experience and personalize the content and advertising you see.
Visit our Privacy Policy to learn more. By continuing to use the site, you agree to this use of cookies and data.
EN

Hourly Weather Gogolino

Today, 23 September, Wednesday

Time Temperature Precipitation Wind Pressure Humidity
00:00 +10°C° 0 mm 2 mps 744 mmHg 86%
01:00 +9°C° 0 mm 2 mps 745 mmHg 90%
02:00 +8°C° 0 mm 2 mps 745 mmHg 93%
03:00 +8°C° 0 mm 2 mps 745 mmHg 94%
04:00 +8°C° 0 mm 2 mps 745 mmHg 95%
05:00 +7°C° 0 mm 2 mps 746 mmHg 95%
06:00 +10°C° 0 mm 1 mps 746 mmHg 91%
07:00 +11°C° 0 mm 1 mps 746 mmHg 86%
08:00 +12°C° 0 mm 1 mps 746 mmHg 81%
09:00 +14°C° 0 mm 2 mps 746 mmHg 75%
10:00 +16°C° 0 mm 2 mps 746 mmHg 70%
11:00 +18°C° 0 mm 2 mps 746 mmHg 64%
12:00 +19°C° 0 mm 2 mps 746 mmHg 62%
13:00 +20°C° 0 mm 2 mps 746 mmHg 61%
14:00 +21°C° 0 mm 3 mps 746 mmHg 59%
15:00 +19°C° 0 mm 2 mps 745 mmHg 66%
16:00 +18°C° 0 mm 2 mps 745 mmHg 73%
17:00 +17°C° 0 mm 2 mps 745 mmHg 80%
18:00 +16°C° 0 mm 2 mps 745 mmHg 85%
19:00 +15°C° 0 mm 2 mps 745 mmHg 90%
20:00 +14°C° 0 mm 2 mps 745 mmHg 94%
21:00 +13°C° 0 mm 2 mps 745 mmHg 95%
22:00 +13°C° 0 mm 2 mps 745 mmHg 95%
23:00 +13°C° 0 mm 2 mps 745 mmHg 96%

Tomorrow, 24 September, Thursday

Time Temperature Precipitation Wind Pressure Humidity
00:00 +13°C° 0 mm 2 mps 746 mmHg 96%
01:00 +13°C° 0 mm 2 mps 746 mmHg 96%
02:00 +12°C° 0 mm 2 mps 746 mmHg 96%
03:00 +12°C° 0 mm 2 mps 746 mmHg 96%
04:00 +12°C° 0 mm 2 mps 746 mmHg 96%
05:00 +10°C° 0 mm 2 mps 746 mmHg 96%
06:00 +12°C° 0 mm 2 mps 746 mmHg 90%
07:00 +13°C° 0 mm 2 mps 746 mmHg 85%
08:00 +13°C° 0 mm 3 mps 746 mmHg 79%
09:00 +16°C° 0 mm 3 mps 747 mmHg 72%
10:00 +18°C° 0 mm 3 mps 747 mmHg 64%
11:00 +19°C° 0 mm 3 mps 747 mmHg 57%
12:00 +20°C° 0 mm 3 mps 747 mmHg 55%
13:00 +20°C° 0 mm 3 mps 747 mmHg 53%
14:00 +21°C° 0 mm 3 mps 747 mmHg 51%
15:00 +19°C° 0 mm 3 mps 747 mmHg 58%
16:00 +18°C° 0 mm 2 mps 747 mmHg 65%
17:00 +16°C° 0 mm 2 mps 747 mmHg 72%
18:00 +15°C° 0 mm 2 mps 747 mmHg 75%
19:00 +14°C° 0 mm 2 mps 747 mmHg 78%
20:00 +13°C° 0 mm 2 mps 747 mmHg 82%
21:00 +12°C° 0 mm 2 mps 747 mmHg 84%
22:00 +12°C° 0 mm 2 mps 747 mmHg 86%
23:00 +12°C° 0 mm 2 mps 748 mmHg 88%

Day after tomorrow, 25 September, Friday

Time Temperature Precipitation Wind Pressure Humidity
00:00 +10°C° 0 mm 2 mps 748 mmHg 89%
01:00 +10°C° 0 mm 2 mps 748 mmHg 91%
02:00 +9°C° 0 mm 2 mps 748 mmHg 92%
03:00 +9°C° 0 mm 2 mps 748 mmHg 92%
04:00 +9°C° 0 mm 2 mps 748 mmHg 92%
05:00 +9°C° 0 mm 2 mps 747 mmHg 91%
06:00 +10°C° 0 mm 2 mps 748 mmHg 86%
07:00 +11°C° 0 mm 3 mps 748 mmHg 80%
08:00 +13°C° 0 mm 3 mps 748 mmHg 75%
09:00 +14°C° 0 mm 3 mps 748 mmHg 69%
10:00 +17°C° 0 mm 3 mps 748 mmHg 64%
11:00 +19°C° 0 mm 3 mps 748 mmHg 59%
12:00 +19°C° 0 mm 3 mps 748 mmHg 58%
13:00 +20°C° 0 mm 3 mps 748 mmHg 56%
14:00 +21°C° 0 mm 3 mps 748 mmHg 55%
15:00 +19°C° 0 mm 3 mps 748 mmHg 61%
16:00 +18°C° 0 mm 3 mps 747 mmHg 68%
17:00 +17°C° 0 mm 2 mps 747 mmHg 75%
18:00 +16°C° 0 mm 3 mps 747 mmHg 78%
19:00 +14°C° 0 mm 3 mps 747 mmHg 81%
20:00 +13°C° 0 mm 3 mps 747 mmHg 84%
21:00 +12°C° 0 mm 3 mps 747 mmHg 87%
22:00 +13°C° 0 mm 2 mps 748 mmHg 89%
23:00 +13°C° 0 mm 2 mps 748 mmHg 92%

26 September, Saturday

Time Temperature Precipitation Wind Pressure Humidity
00:00 +12°C° 0 mm 2 mps 748 mmHg 93%
01:00 +12°C° 0 mm 2 mps 748 mmHg 94%
02:00 +12°C° 0 mm 2 mps 748 mmHg 95%
03:00 +10°C° 0 mm 2 mps 748 mmHg 94%
04:00 +10°C° 0 mm 3 mps 748 mmHg 94%
05:00 +10°C° 0 mm 3 mps 748 mmHg 93%
06:00 +11°C° 0 mm 3 mps 748 mmHg 88%
07:00 +12°C° 0 mm 3 mps 748 mmHg 83%
08:00 +13°C° 0 mm 4 mps 748 mmHg 78%
09:00 +15°C° 0 mm 4 mps 748 mmHg 72%
10:00 +18°C° 0 mm 4 mps 749 mmHg 65%
11:00 +19°C° 0 mm 4 mps 749 mmHg 59%
12:00 +20°C° 0 mm 4 mps 749 mmHg 58%
13:00 +20°C° 0 mm 4 mps 749 mmHg 58%
14:00 +21°C° 0 mm 4 mps 749 mmHg 57%
15:00 +19°C° 0 mm 4 mps 749 mmHg 62%
16:00 +18°C° 0 mm 3 mps 749 mmHg 67%
17:00 +17°C° 0 mm 3 mps 749 mmHg 73%
18:00 +16°C° 0 mm 3 mps 749 mmHg 75%
19:00 +14°C° 0 mm 3 mps 750 mmHg 77%
20:00 +13°C° 0 mm 3 mps 750 mmHg 79%
21:00 +13°C° 0 mm 3 mps 750 mmHg 79%
22:00 +12°C° 0 mm 3 mps 750 mmHg 80%
23:00 +12°C° 0 mm 3 mps 751 mmHg 81%

27 September, Sunday

Time Temperature Precipitation Wind Pressure Humidity
00:00 +12°C° 0 mm 2 mps 751 mmHg 82%
01:00 +10°C° 0 mm 2 mps 751 mmHg 83%
02:00 +10°C° 0 mm 2 mps 751 mmHg 85%
03:00 +10°C° 0 mm 2 mps 751 mmHg 85%
04:00 +9°C° 0 mm 3 mps 751 mmHg 84%
05:00 +9°C° 0 mm 3 mps 751 mmHg 84%
06:00 +10°C° 0 mm 3 mps 751 mmHg 81%
07:00 +11°C° 0 mm 3 mps 751 mmHg 78%
08:00 +12°C° 0 mm 3 mps 751 mmHg 74%
09:00 +14°C° 0 mm 4 mps 751 mmHg 70%
10:00 +15°C° 0 mm 4 mps 751 mmHg 65%
11:00 +18°C° 0 mm 4 mps 751 mmHg 60%
12:00 +19°C° 0 mm 4 mps 751 mmHg 59%
13:00 +19°C° 0 mm 4 mps 751 mmHg 59%
14:00 +20°C° 0 mm 4 mps 751 mmHg 58%
15:00 +19°C° 0 mm 4 mps 751 mmHg 62%
16:00 +17°C° 0 mm 3 mps 751 mmHg 65%
17:00 +16°C° 0 mm 3 mps 751 mmHg 69%
18:00 +14°C° 0 mm 3 mps 751 mmHg 69%
19:00 +14°C° 0 mm 3 mps 751 mmHg 69%
20:00 +13°C° 0 mm 3 mps 752 mmHg 69%
21:00 +12°C° 0 mm 3 mps 752 mmHg 70%
22:00 +11°C° 0 mm 3 mps 752 mmHg 71%
23:00 +11°C° 0 mm 3 mps 752 mmHg 72%

28 September, Monday

Time Temperature Precipitation Wind Pressure Humidity
00:00 +10°C° 0 mm 3 mps 752 mmHg 73%
01:00 +10°C° 0 mm 3 mps 751 mmHg 74%
02:00 +9°C° 0 mm 3 mps 751 mmHg 75%
03:00 +9°C° 0 mm 3 mps 751 mmHg 76%
04:00 +8°C° 0 mm 4 mps 751 mmHg 76%
05:00 +7°C° 0 mm 4 mps 751 mmHg 77%
06:00 +8°C° 0 mm 4 mps 751 mmHg 74%
07:00 +10°C° 0 mm 4 mps 751 mmHg 70%
08:00 +10°C° 0 mm 4 mps 751 mmHg 67%
09:00 +11°C° 0 mm 4 mps 751 mmHg 63%
10:00 +12°C° 0 mm 4 mps 751 mmHg 60%
11:00 +13°C° 0 mm 4 mps 750 mmHg 57%
12:00 +14°C° 0 mm 5 mps 750 mmHg 56%
13:00 +14°C° 0 mm 5 mps 750 mmHg 55%
14:00 +15°C° 0 mm 5 mps 750 mmHg 53%
15:00 +14°C° 0 mm 4 mps 750 mmHg 56%
16:00 +13°C° 0 mm 4 mps 750 mmHg 59%
17:00 +12°C° 0 mm 3 mps 750 mmHg 62%
18:00 +12°C° 0 mm 3 mps 750 mmHg 66%
19:00 +11°C° 0 mm 3 mps 750 mmHg 69%
20:00 +11°C° 0 mm 3 mps 750 mmHg 73%
21:00 +11°C° 0 mm 3 mps 750 mmHg 74%
22:00 +11°C° 0 mm 4 mps 750 mmHg 75%
23:00 +11°C° 0 mm 4 mps 750 mmHg 76%
Show more